Theta_e
309 311 312 312 312 312 312 311 310 310 309 309 310 310 310 309 309 309 310 305 305 306 306 307 308 307 308 308 308 308 308 307 307 306 305 305 304 304 303 303 302 302 302 302 302 301 300 300 299 299 298 297 297 296 295 295 295 294 294 294 293 293 293 292 291 289 289 288 287 287 286 285 285 284 284 283 282 282 281 281 280 280 279 279 278 278
309 311 312 311 310 309 308 308 308 308 309 309 309 308 309 309 309 310 308 305 304 305 306 307 307 307 307 307 308 308 307 307 306 305 305 304 303 303 303 302 302 302 302 302 302 301 301 300 299 298 298 297 297 296 296 295 295 294 294 294 293 293 293 292 291 289 289 288 288 287 287 286 285 285 284 284 283 282 281 281 280 280 279 279 278 278
311 313 311 307 305 306 306 307 307 308 309 309 308 307 307 309 309 310 307 304 304 304 306 306 306 306 307 308 308 308 306 305 304 304 303 303 303 303 303 303 303 303 303 303 303 303 302 301 300 299 298 297 296 296 296 295 295 294 294 294 293 293 292 292 291 290 289 289 288 288 287 287 286 286 285 284 283 282 281 281 280 280 279 278 278 277
312 312 307 304 305 307 307 306 307 308 308 308 307 307 308 309 309 308 307 305 305 304 305 306 305 306 308 309 308 306 304 304 304 302 302 302 302 303 302 303 303 303 304 304 303 303 302 301 301 300 299 298 297 296 296 295 295 294 294 294 293 293 292 291 291 290 289 288 288 287 287 287 286 285 284 283 282 282 281 280 280 279 279 278 278 277
312 307 303 304 305 306 308 307 307 308 308 308 309 308 308 308 307 307 307 306 306 306 305 305 307 309 310 309 308 306 305 305 304 303 303 303 303 303 303 303 303 303 303 302 301 301 301 301 300 300 299 298 298 297 296 295 295 294 294 293 293 293 292 291 291 289 289 288 288 287 286 286 285 284 283 282 282 281 281 280 280 279 279 278 278 277
312 303 302 306 305 305 307 307 308 307 307 308 309 308 306 306 305 306 306 305 306 307 305 306 308 309 309 309 308 308 307 306 305 305 304 304 303 303 303 303 302 301 301 301 300 300 300 300 300 299 299 298 297 297 296 295 294 294 293 293 293 292 292 291 290 289 288 288 287 286 286 285 285 284 283 283 282 282 281 280 280 280 279 278 278 277
307 301 302 306 306 306 307 307 308 306 305 307 306 303 304 303 304 305 305 304 306 307 307 306 306 307 309 309 308 307 307 306 306 305 304 303 303 302 302 301 301 300 300 300 300 300 300 300 299 299 298 298 297 296 295 295 294 293 293 292 292 292 291 291 290 289 288 287 287 286 286 286 285 285 285 284 283 283 282 281 280 280 279 278 277 277
306 303 303 304 305 307 308 307 307 305 305 308 304 301 303 303 304 305 304 304 305 306 306 306 306 306 308 309 308 307 307 306 305 305 304 303 302 302 301 301 301 300 300 300 300 299 300 299 299 298 298 297 297 296 295 294 294 293 292 292 291 291 291 290 289 288 287 287 287 287 286 286 286 286 286 285 285 284 283 282 281 280 279 278 277 276
307 306 305 305 306 307 307 305 304 304 306 306 302 301 303 303 304 305 304 304 305 305 306 307 306 307 308 309 307 306 307 306 305 305 304 303 302 302 302 301 300 300 300 299 299 299 299 299 299 298 297 297 296 296 295 294 294 293 292 291 291 290 290 289 289 288 287 287 286 286 286 286 286 286 285 285 285 284 282 281 280 279 278 278 277 276
306 305 305 306 306 306 304 301 301 304 305 304 301 302 303 303 304 304 303 304 305 305 307 307 306 306 308 308 307 307 306 305 305 304 303 302 302 302 301 300 300 300 299 299 299 299 299 299 298 297 297 296 296 295 295 295 294 293 292 291 291 290 290 289 289 288 287 286 286 286 286 286 286 286 285 285 285 283 282 280 280 279 278 277 277 276
304 302 304 305 304 303 301 300 300 302 303 302 303 305 305 305 304 303 303 304 305 308 307 305 305 305 306 308 307 306 304 303 304 303 302 302 301 301 300 300 300 299 299 299 299 299 299 298 298 297 296 296 295 295 294 294 294 293 292 291 291 290 289 289 288 288 287 286 286 286 285 286 285 285 285 285 284 283 282 281 280 279 278 277 277 276
306 305 306 304 301 301 301 302 301 300 301 302 304 305 306 307 305 304 304 304 307 310 305 301 303 304 305 307 307 304 302 303 303 302 301 301 300 300 299 299 300 299 299 298 298 298 299 298 298 297 296 295 295 295 294 293 293 293 292 291 291 290 289 289 288 288 287 286 286 285 285 285 285 285 285 284 284 283 282 281 280 279 278 278 277 276
309 306 305 303 301 301 302 305 304 302 302 303 305 305 307 309 308 308 308 307 309 308 302 301 303 303 305 307 306 303 302 302 302 301 301 300 299 299 299 299 299 298 298 298 297 297 298 298 297 297 296 295 295 294 293 293 292 292 292 291 291 290 289 289 288 288 287 286 286 285 285 285 285 284 284 284 284 283 282 281 280 279 279 278 277 276
308 306 304 304 303 301 301 305 306 305 305 305 305 305 307 308 308 309 309 309 310 307 301 300 302 303 305 306 304 302 302 301 300 300 300 299 299 299 299 298 298 298 297 297 297 297 297 297 297 296 296 295 294 294 293 292 292 292 292 291 291 290 290 289 289 288 287 286 286 285 285 285 284 284 284 283 283 283 282 281 280 279 279 278 277 277
307 308 306 305 303 301 301 303 303 303 304 304 304 303 305 307 307 309 309 309 310 308 303 300 302 305 306 305 303 301 301 300 300 300 299 299 299 299 299 298 298 297 297 297 297 296 297 297 297 296 295 295 294 294 293 292 291 291 291 291 291 290 290 289 289 288 287 287 286 285 285 285 284 284 283 283 282 282 282 281 280 279 278 278 277 276
307 309 305 301 300 299 301 301 300 302 304 303 302 303 305 305 305 306 307 307 307 307 305 302 303 306 306 303 302 301 301 300 300 300 299 299 299 299 299 298 297 297 296 296 296 296 296 296 296 296 295 294 294 293 293 292 292 291 291 290 290 290 290 289 289 288 287 287 286 285 285 284 284 283 283 282 282 282 281 280 280 279 278 277 277 276
307 307 303 300 300 298 299 300 300 302 304 303 303 304 303 301 302 305 306 305 304 305 306 305 305 306 305 304 301 301 301 301 300 300 299 299 299 298 298 297 297 296 296 296 295 295 295 296 296 295 294 294 293 293 293 292 292 291 291 290 290 290 289 289 289 288 287 287 286 285 284 284 283 283 282 282 282 281 281 280 279 278 277 277 276 275
304 306 304 301 302 299 297 299 300 300 301 303 303 303 301 300 301 303 304 305 305 306 307 306 306 306 306 305 302 301 302 301 300 300 299 299 299 298 298 297 297 296 296 295 295 295 295 295 295 295 294 293 293 293 292 292 292 291 291 291 290 290 289 289 288 288 287 286 286 285 284 284 283 283 282 282 281 281 280 279 278 277 277 276 275 275
303 306 303 300 301 300 297 299 302 300 299 301 302 301 301 303 304 303 304 305 306 307 307 307 306 306 306 306 303 302 301 300 299 299 299 299 298 298 297 297 296 296 295 295 294 294 295 295 295 295 294 293 293 292 292 292 292 291 291 291 290 290 290 289 288 288 287 286 286 285 284 283 283 282 282 281 280 280 280 279 278 277 276 275 275 274
303 305 304 300 300 300 299 301 304 303 300 299 300 300 301 301 303 304 304 304 305 306 306 307 307 306 306 305 304 302 300 299 299 299 299 299 298 298 297 296 296 295 295 295 294 294 294 294 295 294 294 293 292 292 292 292 291 291 291 291 290 290 290 289 289 288 287 286 285 285 284 283 283 282 281 281 280 279 279 278 277 277 276 275 274 274
303 303 304 303 300 301 303 302 303 304 302 301 302 303 302 301 301 302 303 303 303 305 305 306 307 306 304 303 302 301 299 299 299 298 298 298 298 297 297 296 296 295 295 294 294 294 294 294 294 294 293 292 292 292 291 291 291 291 291 290 290 290 290 289 289 289 288 287 285 285 284 284 283 282 281 280 280 279 278 278 277 276 275 275 274 273
303 303 304 304 303 304 304 300 298 300 301 302 303 303 303 303 302 302 304 303 302 303 304 304 305 305 303 302 301 300 299 299 298 298 298 297 297 297 296 296 295 295 294 294 293 293 294 294 294 294 293 292 291 291 291 291 291 291 290 290 290 290 289 289 289 289 288 287 286 285 284 283 283 282 281 280 279 278 278 277 277 276 275 274 274 273
300 302 303 304 304 304 300 296 295 297 298 300 300 301 302 302 302 303 304 303 301 302 303 302 303 303 302 302 301 299 299 299 298 298 297 297 296 296 296 295 294 294 294 294 293 293 294 294 294 293 292 291 291 291 291 291 290 290 290 289 289 289 289 289 289 289 288 288 286 285 284 283 282 281 281 280 279 278 277 277 276 276 275 274 273 273
299 302 303 304 304 303 298 295 295 295 297 300 300 300 300 301 302 302 302 301 300 301 302 302 304 304 301 300 300 300 299 299 298 297 297 296 296 296 295 294 294 294 293 293 293 293 293 294 293 293 291 291 291 290 290 290 290 289 289 289 288 288 288 288 288 288 288 288 287 286 284 284 283 281 280 279 279 278 277 277 276 275 274 274 273 273
300 303 303 303 305 304 301 300 299 298 299 301 301 299 298 300 302 300 299 299 300 301 301 302 304 304 301 300 300 300 299 298 298 297 296 296 295 295 294 294 293 293 293 293 292 293 293 293 293 292 291 291 290 290 290 289 289 289 288 288 287 287 287 287 287 288 288 287 287 286 284 284 283 282 280 279 279 278 277 277 276 275 274 273 273 273
300 303 303 302 304 304 305 305 304 302 301 301 301 300 298 299 302 300 299 300 301 301 301 301 302 303 301 300 300 298 298 297 297 296 296 295 294 294 294 293 293 293 293 292 292 292 292 292 292 291 290 290 290 289 289 289 288 288 288 287 287 286 286 286 287 287 287 287 287 286 284 284 283 282 280 279 279 278 277 276 276 275 274 273 273 272
299 301 302 302 303 303 304 304 303 301 301 301 302 302 300 299 299 298 299 300 301 301 301 301 301 301 300 298 298 297 297 296 295 295 294 294 294 293 293 293 293 292 292 292 292 292 292 291 291 291 290 290 289 289 289 288 288 288 287 287 287 286 286 286 286 286 287 287 287 286 284 284 283 282 281 280 279 278 277 276 276 275 274 273 273 272
300 302 302 302 303 302 302 302 301 301 300 300 301 301 300 300 298 298 298 299 300 300 301 301 299 298 297 296 297 297 296 295 295 294 294 293 293 293 293 293 292 292 292 292 292 292 291 290 290 290 289 289 289 289 288 288 288 288 287 287 287 286 286 286 286 286 286 287 287 286 285 284 283 282 281 280 279 278 277 276 275 275 274 273 272 272
299 302 300 300 301 299 299 300 300 300 299 299 299 299 298 299 299 298 298 298 298 298 299 299 297 296 296 296 296 296 294 294 294 293 293 293 293 293 292 292 291 291 291 291 291 290 290 289 289 289 289 289 288 288 288 288 288 288 288 287 286 286 286 286 286 286 286 287 287 286 285 285 284 282 280 279 278 278 277 276 275 274 274 273 273 272
298 302 301 299 299 299 300 300 299 299 299 298 298 298 297 297 298 298 298 297 297 297 297 296 295 295 295 295 295 294 293 293 293 293 293 292 292 292 291 291 291 291 291 290 290 289 288 288 288 288 288 288 288 288 288 289 288 287 286 286 286 286 285 285 285 286 286 287 286 286 285 285 284 282 280 279 278 277 277 276 275 274 274 273 273 272
296 301 301 299 300 302 300 298 298 298 297 298 297 296 295 295 296 297 297 296 296 296 295 294 295 295 295 294 293 293 293 293 292 292 292 292 291 291 290 290 291 290 289 289 288 288 287 288 288 288 288 288 288 288 288 287 286 285 285 285 285 285 285 285 285 286 286 286 286 285 285 284 284 282 280 279 278 278 277 276 275 274 274 273 272 272
296 299 300 299 301 303 300 298 299 298 297 297 295 293 293 294 294 295 295 295 295 294 294 294 295 295 294 293 292 292 292 292 292 291 291 290 290 290 290 290 290 289 288 287 287 287 287 287 287 288 287 287 287 287 287 286 284 284 284 284 284 285 285 285 286 286 286 286 286 285 284 283 283 282 281 279 278 278 277 276 275 274 274 273 272 272
297 298 300 300 301 302 301 300 300 299 299 298 295 292 292 293 293 293 293 293 293 293 294 294 294 293 293 292 292 292 291 291 290 290 290 290 289 290 290 289 288 287 287 287 287 287 287 287 287 287 286 286 286 286 285 284 284 283 284 284 284 284 284 284 285 284 284 284 284 283 283 283 283 282 282 280 279 278 277 276 275 275 274 273 272 272
296 298 299 299 299 301 301 300 300 302 302 299 294 292 292 292 292 292 292 293 293 293 293 293 293 292 292 292 291 291 290 289 289 289 289 289 289 289 289 288 287 286 286 286 286 286 286 287 286 286 286 286 286 285 284 283 283 283 283 283 282 282 282 282 282 282 282 282 282 282 282 282 282 281 281 281 279 278 277 276 275 275 274 274 272 272
297 298 299 298 298 300 300 299 302 304 301 296 294 293 292 292 292 292 292 293 293 293 293 292 292 291 291 290 290 289 289 289 289 289 289 289 289 288 287 286 286 286 285 285 285 285 285 285 285 285 285 284 284 283 283 283 282 281 281 281 281 281 281 280 280 280 280 281 281 280 280 280 281 280 280 280 279 278 278 277 276 275 274 274 273 272
297 298 298 298 298 299 299 300 302 301 297 295 294 293 292 292 292 291 292 293 292 292 292 291 290 290 289 289 289 288 288 288 288 289 289 289 288 287 286 285 285 285 284 284 283 283 284 284 283 283 283 283 282 282 282 281 280 280 279 279 279 279 279 279 279 279 279 279 279 279 278 278 278 278 278 278 279 278 278 278 276 275 275 274 273 271
296 297 298 298 298 298 299 300 300 299 297 295 293 291 291 291 291 291 292 292 291 291 291 289 289 289 288 288 288 288 288 288 288 288 288 287 286 285 285 285 284 283 283 282 282 282 282 282 282 282 282 281 281 280 280 279 279 279 278 278 278 278 278 278 278 278 278 277 277 276 276 276 276 277 277 277 278 278 278 277 277 276 275 274 272 271
295 296 297 298 299 298 298 299 299 300 300 294 291 291 291 291 291 291 291 292 291 290 289 288 288 288 287 287 288 287 287 287 286 286 286 286 285 284 284 283 283 282 281 281 280 280 281 281 281 281 280 279 278 278 278 278 278 277 277 277 277 276 276 276 276 276 275 275 274 274 275 275 275 276 276 277 277 278 278 278 278 277 276 274 272 271
295 296 296 298 299 297 297 297 298 300 298 292 290 291 291 291 292 291 292 293 291 288 287 288 287 287 287 287 287 286 285 285 285 285 285 284 284 283 282 281 282 281 280 280 280 280 280 280 279 279 278 277 276 276 276 276 276 275 275 275 275 275 275 274 273 274 273 273 274 274 274 275 275 276 276 277 277 277 277 277 277 277 276 274 272 271
296 296 296 296 297 296 296 296 297 298 295 291 290 291 290 291 291 292 294 294 289 286 286 287 286 287 286 286 285 284 284 284 284 284 284 283 282 281 280 280 280 280 279 279 279 279 279 278 278 277 276 275 275 274 274 274 274 273 274 274 274 274 273 272 272 273 273 273 273 273 274 275 275 276 276 275 275 275 275 275 275 275 275 273 272 270
295 295 295 294 294 295 296 296 296 296 292 289 290 290 290 291 292 293 293 290 286 285 286 286 286 286 285 284 284 283 283 283 283 282 282 282 280 280 280 279 279 279 278 278 278 277 277 276 275 275 274 273 273 273 273 273 272 272 272 272 273 273 272 272 272 272 272 273 273 273 274 274 274 274 274 274 273 273 273 273 273 273 273 273 271 270
294 294 294 294 294 294 294 294 295 295 292 290 290 290 290 291 291 290 288 286 285 285 285 285 285 284 283 283 282 282 282 282 282 281 281 280 279 279 279 278 278 277 277 276 276 275 275 274 273 273 272 272 272 272 272 271 270 269 269 271 272 272 271 271 271 272 272 272 272 273 272 272 272 272 272 272 273 273 273 272 272 272 272 272 271 269
291 293 294 294 293 293 293 294 295 294 292 290 289 289 289 289 288 287 286 285 285 284 284 284 284 282 282 281 281 281 281 280 280 279 279 279 279 278 278 277 277 276 276 275 274 274 273 272 272 272 271 271 271 271 271 269 268 267 268 269 270 270 270 270 270 270 270 270 270 270 270 270 270 270 271 271 272 272 272 272 271 271 271 271 270 269
290 291 292 292 292 292 292 293 293 292 291 289 289 289 289 288 286 286 285 284 284 283 283 283 282 281 280 280 280 280 279 279 279 278 278 277 277 277 277 276 275 275 274 273 272 272 271 271 271 271 271 271 271 270 269 267 267 267 267 268 268 269 269 269 267 268 268 268 269 269 269 269 269 269 270 270 271 271 272 271 271 271 270 270 269 268
290 289 289 291 291 291 290 291 291 290 289 288 288 288 288 287 286 285 284 283 283 282 282 282 281 280 279 279 279 279 278 278 278 277 277 276 276 276 275 275 274 273 272 272 271 271 270 270 270 270 270 269 269 269 267 266 266 266 266 267 268 268 268 266 266 266 267 267 268 268 268 267 268 268 269 269 269 270 270 270 271 270 270 269 268 268
288 288 289 290 290 289 289 290 289 289 288 287 287 288 287 286 284 283 282 282 281 281 281 281 280 279 278 279 279 278 277 277 276 276 276 276 275 275 274 273 273 272 271 270 270 270 270 270 269 268 268 268 267 267 265 264 265 265 266 266 267 266 265 265 265 266 266 267 267 267 266 266 267 267 267 268 268 268 269 270 271 270 270 269 268 267
288 288 288 288 288 287 289 290 288 287 286 286 286 286 285 284 283 282 281 281 280 280 280 279 278 278 278 278 277 276 276 276 275 275 275 275 274 273 272 272 271 270 270 269 269 269 269 268 267 267 267 266 266 265 264 264 264 265 265 265 265 264 264 264 265 265 266 265 265 265 265 265 266 266 266 267 267 268 268 269 270 270 269 268 267 267
288 288 287 287 286 286 288 288 287 286 285 285 285 285 283 283 282 281 281 280 280 280 279 278 278 278 277 276 276 275 275 274 274 274 274 273 272 272 271 271 270 269 269 268 268 268 267 267 266 266 266 265 264 264 263 263 264 264 264 263 263 263 264 264 264 264 263 263 263 264 264 264 265 265 265 266 266 267 268 268 270 270 269 268 267 267
287 287 286 285 286 286 287 287 285 285 285 285 284 283 282 282 281 280 280 280 279 278 277 277 277 276 275 275 275 274 273 273 274 273 273 272 271 271 270 270 269 268 268 267 267 267 266 266 266 265 264 264 263 263 263 263 263 263 262 262 262 263 263 263 262 262 262 262 263 263 263 264 264 264 265 265 266 267 267 267 268 269 269 268 268 267
286 285 285 285 285 286 286 285 284 283 283 283 282 281 281 281 280 279 278 278 277 276 276 275 275 275 274 274 274 273 272 272 273 272 271 270 270 269 269 268 268 267 267 266 266 265 265 265 265 264 263 263 262 262 262 262 262 262 261 262 262 262 262 261 261 261 261 262 262 262 262 263 263 264 264 265 266 266 266 267 268 269 269 268 267 267
285 284 284 284 284 285 285 284 283 282 282 281 281 280 281 281 279 278 277 277 277 276 275 274 274 273 273 273 273 272 272 271 271 271 270 269 269 268 268 267 267 266 266 265 265 265 264 264 263 263 262 262 261 262 262 261 261 261 261 262 261 260 260 260 260 260 260 260 260 261 261 262 263 263 264 265 265 265 266 266 268 268 268 267 267 266
Wind_Speed
1 3 4 3 2 0 1 1 4 4 4 7 7 7 9 9 10 9 3 6 1 3 7 9 10 13 16 19 19 15 10 8 10 9 6 5 4 4 4 4 5 6 4 2 4 6 7 9 10 11 11 12 13 14 15 17 18 18 18 19 19 18 17 19 20 20 22 22 19 18 18 18 16 16 16 17 17 17 16 16 16 17 15 13 12 11
2 5 3 3 5 5 3 3 2 2 3 5 6 8 8 8 9 3 5 4 1 1 6 7 11 14 16 20 17 11 8 7 6 6 5 5 4 2 2 3 3 3 2 2 4 6 8 9 10 9 8 8 9 9 11 13 14 15 16 18 18 16 16 19 20 21 23 24 23 20 18 18 16 16 17 17 17 17 17 17 17 17 16 14 14 13
4 3 2 5 5 5 5 3 1 2 4 5 5 7 7 6 6 2 6 3 2 2 6 8 10 14 18 19 12 5 3 4 5 4 4 4 4 2 2 2 1 1 1 2 3 4 6 6 6 4 3 4 6 8 9 11 12 14 15 16 17 16 17 19 20 21 21 21 21 20 18 16 16 16 16 16 16 16 16 17 17 17 16 14 14 13
4 1 4 4 2 2 2 2 1 2 4 6 6 6 7 5 5 3 2 1 4 5 7 9 9 12 14 10 2 2 1 3 3 2 2 2 3 3 3 3 3 3 4 4 4 5 5 4 4 3 3 4 5 7 8 9 11 12 14 15 16 17 18 19 20 22 21 18 17 18 17 16 15 15 15 15 15 16 17 17 17 17 18 16 15 14
3 4 3 2 2 0 1 1 3 4 4 6 7 6 8 6 5 6 4 7 8 5 3 8 9 6 5 4 2 4 3 0 1 1 2 2 2 3 4 4 6 8 8 9 10 11 11 10 9 8 7 6 7 8 9 9 10 11 13 14 15 16 17 18 18 19 19 17 16 15 15 15 15 15 14 16 17 18 18 19 18 18 19 18 16 15
1 3 1 2 1 1 2 3 3 4 5 6 3 2 5 5 5 7 8 9 8 3 2 4 8 3 2 3 2 4 4 4 3 5 8 7 6 6 6 8 9 10 10 10 11 10 10 11 10 10 10 10 9 10 11 10 10 11 13 13 14 15 15 16 17 17 17 17 17 16 16 16 16 17 18 20 20 19 19 20 19 18 18 18 17 15
1 2 0 1 2 2 3 5 3 3 5 5 1 3 3 3 4 7 7 6 6 5 1 2 5 5 4 5 2 6 5 7 8 9 11 9 9 9 9 10 10 10 9 9 9 10 10 11 11 12 12 11 10 11 11 11 11 11 12 13 13 14 14 15 15 16 17 18 18 19 20 20 19 19 20 20 19 18 18 18 17 17 17 18 17 15
3 2 1 1 2 3 4 4 2 3 5 3 1 2 3 3 6 6 5 5 6 8 6 4 6 6 6 3 6 7 5 8 9 10 11 10 11 11 10 10 9 9 8 7 8 9 10 10 11 11 11 12 11 11 11 11 12 12 12 12 12 12 13 14 14 15 18 19 19 20 21 22 22 22 21 17 16 16 16 15 15 15 15 16 17 16
2 1 3 2 3 4 2 2 2 2 5 1 2 2 3 4 7 6 5 7 5 6 6 5 7 5 5 2 6 8 5 7 7 9 11 10 11 10 9 10 9 8 8 8 8 8 10 10 10 10 11 12 12 11 11 11 11 12 12 11 11 12 12 13 14 15 17 19 20 20 20 21 22 22 20 18 16 14 14 14 14 14 14 14 15 16
2 1 1 1 3 2 2 3 3 2 3 1 1 4 5 6 7 5 6 6 4 5 5 4 6 4 5 2 3 7 4 6 5 7 9 9 10 9 9 9 8 8 7 7 8 8 10 9 9 10 11 12 12 12 12 12 11 12 12 12 12 12 12 13 13 15 16 18 19 20 21 22 22 21 19 18 17 15 14 14 15 15 14 14 15 16
3 1 1 1 2 2 3 2 1 1 1 2 3 6 7 7 6 4 4 4 4 5 1 3 3 3 4 4 2 3 3 3 5 6 7 8 9 9 8 8 8 7 7 7 8 8 9 9 9 10 11 12 12 12 13 13 13 13 12 12 12 12 13 13 13 14 16 17 19 20 22 23 23 22 20 18 18 17 16 16 16 16 15 15 15 15
4 2 2 1 2 2 1 2 2 1 1 2 4 6 7 4 4 4 3 3 4 3 2 3 2 2 4 5 3 7 6 5 6 7 7 8 8 8 7 7 7 7 7 8 8 8 9 9 10 11 12 12 12 13 14 14 14 14 13 13 13 13 14 13 13 14 15 16 18 20 21 22 23 23 22 21 20 19 18 18 16 16 16 16 16 16
3 2 2 2 0 1 3 3 3 3 3 4 5 5 6 5 3 4 3 3 4 0 4 2 1 2 8 7 4 10 9 9 9 8 7 7 7 6 7 7 6 7 8 8 8 8 8 8 10 11 12 13 13 13 14 14 15 14 14 15 15 15 15 15 14 13 14 16 17 19 20 21 22 22 23 23 22 20 19 18 18 18 17 17 17 17
0 1 3 2 2 1 3 3 1 1 1 2 3 4 5 5 5 7 5 5 5 1 5 3 3 4 10 5 6 11 10 11 10 8 7 6 5 5 5 6 7 7 7 7 7 7 7 8 10 10 12 12 12 13 14 14 15 15 15 15 16 16 16 16 15 14 15 16 17 18 19 20 20 21 22 23 23 22 20 19 19 19 19 18 18 17
3 1 1 1 1 0 3 2 3 4 4 2 2 3 4 3 5 7 6 6 7 4 1 2 1 5 6 1 9 11 10 10 8 6 5 4 4 4 4 6 7 8 8 7 7 8 9 10 10 10 12 12 12 13 13 13 14 14 14 15 15 17 17 17 16 15 15 16 17 17 18 19 20 20 21 21 22 22 22 21 20 19 19 19 18 17
4 2 2 1 1 1 1 1 2 4 4 0 1 2 3 2 3 6 8 8 7 7 4 3 3 5 1 7 10 9 8 8 7 7 5 3 4 4 4 5 7 7 8 8 8 9 11 12 11 11 12 13 13 14 14 14 14 14 15 14 14 16 16 16 16 15 15 16 16 17 17 18 19 20 20 20 21 21 21 22 21 19 19 18 17 16
4 2 3 2 1 1 2 2 1 3 2 0 1 2 0 2 3 6 8 5 4 7 5 4 4 5 1 6 9 8 7 7 7 8 6 5 6 5 5 6 7 8 8 9 9 10 12 13 12 11 13 14 15 15 15 15 15 16 16 16 16 17 16 15 15 15 15 15 16 16 17 18 19 20 21 21 21 21 21 21 20 19 18 17 16 15
3 4 2 2 1 2 2 3 2 1 3 2 2 3 2 1 1 3 5 4 4 7 5 2 4 6 5 1 6 9 6 5 7 8 7 7 7 6 6 7 9 10 10 10 11 11 12 13 12 12 13 15 16 17 17 17 16 16 17 18 19 19 18 17 17 16 16 15 15 15 16 17 18 19 21 22 21 21 21 20 19 18 18 17 17 16
3 5 0 1 0 3 2 3 3 2 1 3 3 3 2 3 2 2 3 5 6 7 7 4 3 5 7 3 6 8 4 5 8 8 8 9 10 9 9 10 12 12 11 10 11 11 11 14 14 13 14 16 18 18 18 18 18 18 19 20 20 20 20 19 18 18 17 16 16 15 16 17 17 18 19 20 21 20 21 21 20 19 18 17 18 18
2 3 1 1 1 2 3 4 2 2 2 1 3 2 0 2 4 3 2 4 6 7 8 6 3 3 4 2 4 6 6 7 8 9 10 12 13 12 11 11 12 12 11 11 12 12 13 16 16 15 16 18 19 19 19 20 20 20 21 21 20 21 22 22 22 22 20 18 17 17 18 18 18 18 18 19 20 20 21 21 20 20 19 18 19 19
2 2 3 0 2 2 2 2 2 2 1 1 3 3 1 2 2 3 3 2 4 7 7 7 7 3 2 5 5 6 7 7 7 9 10 11 13 13 11 11 11 12 12 11 12 13 15 17 16 15 17 19 20 20 21 21 21 21 21 22 23 25 25 25 26 26 25 22 19 18 19 19 19 19 18 18 19 20 21 21 20 20 19 19 19 19
2 3 5 4 4 4 1 3 4 4 2 3 3 3 3 3 2 5 5 1 1 5 5 7 10 6 2 2 5 6 5 4 6 8 9 11 13 13 11 12 14 13 12 13 14 14 16 17 16 16 18 20 21 22 23 22 21 22 24 25 26 27 28 28 28 28 28 26 23 20 19 20 19 18 18 18 19 20 20 21 20 20 19 19 20 20
2 3 5 7 7 3 4 5 3 3 2 2 3 3 3 3 3 6 6 3 1 3 2 5 10 6 2 3 6 5 3 4 7 10 10 11 12 13 14 15 16 15 14 14 14 16 17 17 16 16 19 21 22 23 23 23 24 25 27 28 28 28 29 30 30 29 29 28 26 22 20 20 19 18 18 18 19 20 20 21 20 19 19 19 19 20
1 3 4 7 7 1 6 5 3 2 1 2 3 2 1 2 2 3 5 4 4 6 5 6 9 3 4 5 4 4 4 6 9 11 12 12 12 13 16 16 16 15 15 15 15 17 18 16 16 18 20 23 25 25 25 26 27 28 28 28 28 29 30 30 30 30 29 29 29 25 20 20 19 18 18 18 18 19 20 20 20 20 20 20 19 19
2 3 3 6 7 2 1 1 2 1 1 2 0 1 1 2 3 1 3 2 5 8 7 8 9 3 2 2 3 11 13 11 11 12 13 13 13 14 15 15 15 15 16 17 18 17 15 14 16 21 24 27 29 29 28 28 28 29 28 28 28 29 31 30 30 31 30 30 31 26 20 20 19 18 17 17 18 19 19 19 19 20 20 21 20 20
3 4 3 5 6 6 5 4 2 2 3 4 1 2 2 1 1 2 5 5 5 5 6 8 10 8 6 8 13 18 17 14 14 15 15 14 15 16 15 15 15 16 17 20 20 16 14 15 18 24 29 31 31 29 29 29 30 31 31 30 31 32 33 33 31 31 30 30 31 26 20 19 19 17 18 18 18 18 19 19 20 20 21 21 22 22
3 4 4 6 7 7 8 9 6 5 7 9 7 3 1 3 2 2 4 5 6 7 7 8 10 13 14 15 17 17 15 14 15 17 17 16 16 16 16 17 17 17 18 19 18 15 15 17 21 28 33 32 31 31 31 32 33 33 33 32 33 35 37 36 33 31 30 30 30 24 19 20 20 18 18 18 18 18 18 19 20 21 22 22 22 23
3 4 2 4 7 9 11 13 11 9 9 11 10 8 3 2 4 3 6 7 8 8 7 7 12 16 17 18 17 14 14 15 16 17 17 17 17 17 18 19 20 21 20 18 17 16 18 20 22 30 35 34 33 33 34 34 34 35 34 33 34 37 40 39 34 31 31 30 27 24 21 22 22 19 18 18 17 18 18 19 20 22 22 22 23 24
4 4 1 1 6 10 13 14 13 9 8 7 7 8 7 2 3 4 7 9 8 7 9 13 17 18 17 16 14 13 14 17 18 18 18 18 19 19 21 22 23 22 20 18 18 19 21 22 24 29 33 34 33 35 36 35 33 32 31 32 36 38 40 40 36 33 32 30 28 27 26 24 22 19 17 17 18 19 19 20 21 22 23 23 24 25
3 2 2 1 6 11 11 9 6 4 4 5 4 5 7 5 2 3 6 9 9 9 12 16 19 18 13 12 13 14 16 17 17 17 18 20 21 21 23 24 22 20 19 20 21 22 23 24 26 29 32 34 37 41 39 33 29 29 31 35 39 39 39 39 36 33 32 29 29 29 27 25 25 20 17 18 21 21 21 21 22 22 23 25 25 25
1 1 2 1 7 8 2 2 2 3 2 3 4 7 8 7 6 4 5 8 9 11 14 17 18 15 9 12 16 17 17 16 17 21 21 20 21 22 23 23 21 20 21 23 24 25 25 25 27 30 33 36 39 39 33 28 29 33 34 34 36 38 38 36 33 32 33 32 33 31 25 24 26 23 19 19 21 22 23 23 23 23 24 24 25 25
1 2 0 1 7 5 3 3 4 1 3 4 6 10 11 9 8 6 6 9 11 13 16 15 12 9 10 15 18 18 18 18 20 22 22 21 23 24 23 20 20 23 25 26 26 26 25 25 26 28 30 32 34 32 29 30 32 33 33 32 33 36 36 32 30 32 32 31 32 30 25 24 28 30 27 22 21 23 25 24 23 23 23 24 26 25
1 3 3 2 5 5 1 5 11 4 4 4 5 9 10 9 9 10 10 12 13 13 13 11 8 11 15 18 20 21 23 22 20 20 20 22 23 23 21 20 22 25 26 25 25 26 26 25 25 27 28 28 29 31 35 37 35 31 31 33 35 37 36 33 31 31 31 31 30 30 30 29 31 35 35 30 25 24 24 23 23 24 25 26 27 25
1 3 4 2 3 6 7 11 12 6 2 2 6 9 11 10 11 13 13 13 14 12 10 9 11 16 18 19 20 23 24 23 22 21 21 20 18 18 19 22 24 25 25 24 24 24 25 26 27 28 30 29 29 32 37 37 33 31 32 33 35 36 34 33 33 32 32 33 32 31 32 33 34 35 37 36 30 26 24 23 24 25 27 27 26 25
1 2 3 1 2 6 7 9 8 4 1 3 4 10 13 10 12 16 13 11 13 12 11 12 15 18 20 20 21 22 23 25 25 23 21 17 15 17 20 23 25 26 24 23 21 21 25 29 31 32 33 34 35 36 37 34 32 34 35 35 36 37 36 36 37 35 34 33 31 31 32 32 33 32 33 33 30 27 26 26 25 26 27 28 27 28
2 3 2 2 3 4 4 5 5 3 4 4 3 11 14 11 14 17 14 11 11 11 12 15 17 19 21 21 21 20 23 25 23 19 15 14 17 20 21 22 23 24 22 21 22 24 29 33 35 36 36 36 37 36 36 36 36 38 40 40 39 39 39 38 36 34 33 32 31 31 31 31 32 32 31 31 29 28 29 28 26 27 29 29 28 28
2 3 3 2 1 2 4 5 5 3 2 5 7 10 11 11 12 13 13 10 8 12 15 18 20 22 22 22 22 22 22 22 18 13 12 16 21 23 25 25 24 23 24 27 29 30 33 35 35 35 34 35 37 38 38 39 40 40 43 42 38 36 35 34 33 32 31 31 32 32 32 32 32 31 30 29 29 28 27 26 26 28 29 28 26 27
2 2 3 3 1 2 4 5 5 6 3 4 9 11 11 11 13 13 11 6 8 17 21 22 23 24 23 23 23 21 19 17 15 12 14 20 24 24 26 28 28 26 27 32 34 35 36 35 34 34 35 38 41 41 41 41 41 40 40 39 36 34 33 33 34 33 32 33 33 33 32 31 30 29 29 29 29 30 29 29 29 29 28 27 28 29
1 1 2 4 3 3 4 5 5 4 2 7 12 14 12 13 16 13 8 4 10 21 23 22 24 25 23 22 20 18 16 15 14 14 18 22 24 23 23 25 29 32 34 36 37 38 38 38 36 36 39 40 41 41 40 39 38 38 38 36 35 33 32 34 35 34 33 34 33 32 32 31 30 29 28 27 27 28 29 29 28 26 25 25 27 30
3 2 2 2 3 3 3 4 5 2 4 10 14 14 14 16 15 11 7 5 15 22 21 21 23 22 20 19 17 15 14 14 14 16 21 25 26 26 26 28 31 35 37 38 39 39 41 41 39 38 38 37 37 38 38 36 36 36 36 36 35 33 33 35 35 35 35 35 34 34 33 30 28 26 24 25 27 27 26 27 27 25 23 22 24 27
3 3 2 2 4 5 3 4 5 1 4 12 16 16 17 16 10 6 7 10 16 22 22 21 20 18 17 18 16 13 13 16 18 20 24 27 27 28 31 33 35 36 36 38 40 41 42 41 38 37 37 36 36 37 35 33 34 37 39 38 34 32 34 36 37 37 36 36 36 33 29 26 25 24 25 28 29 26 23 22 24 25 23 22 23 24
3 4 2 2 4 5 3 5 6 1 5 14 17 14 13 10 4 4 9 13 17 20 21 20 17 16 18 20 17 15 17 21 22 22 23 25 25 27 32 35 36 37 39 41 41 39 38 37 37 37 37 37 37 35 33 33 37 43 44 39 35 37 40 39 36 35 35 34 32 29 27 27 27 28 30 30 30 28 24 23 25 25 23 22 22 21
5 4 3 4 5 4 4 5 5 2 7 17 17 11 8 6 4 8 12 17 19 19 18 17 16 16 19 20 20 20 21 23 23 23 24 25 25 28 33 35 36 38 40 40 38 37 37 37 37 37 37 38 37 34 32 35 43 46 41 37 38 40 37 33 33 35 34 34 33 31 30 31 32 33 32 31 31 31 27 24 25 23 20 21 22 20
4 3 3 4 4 4 4 5 5 6 9 15 14 10 8 7 7 11 14 17 18 17 15 14 15 18 20 20 20 21 21 21 23 24 25 26 26 28 33 35 37 38 38 37 37 38 38 38 38 39 39 39 37 34 34 38 42 42 37 36 39 37 32 35 40 39 36 36 36 33 30 30 31 32 32 30 31 32 28 27 27 22 18 18 18 17
5 6 5 4 3 6 6 7 7 8 10 13 12 10 10 10 12 15 16 15 15 14 13 13 16 19 21 20 20 19 19 21 24 25 25 25 25 28 33 37 37 36 35 36 38 38 38 38 39 40 41 40 38 35 37 39 39 39 39 39 37 34 36 42 45 39 36 38 37 31 28 30 31 32 32 32 32 32 32 32 29 22 17 15 13 14
6 8 6 4 5 8 7 5 7 9 12 15 13 9 10 12 14 16 15 14 13 13 12 13 16 19 20 20 20 19 19 22 24 26 25 23 24 30 35 35 34 34 35 37 39 39 39 39 39 39 41 41 39 38 39 39 37 38 39 38 37 40 43 44 43 40 38 36 31 28 29 31 32 32 32 33 32 32 33 31 27 22 17 14 14 14
5 9 7 4 6 8 6 5 11 13 14 16 12 9 13 15 15 14 13 13 14 14 14 16 18 19 19 19 20 21 22 23 24 24 21 19 22 30 33 32 34 36 37 38 39 40 40 38 38 38 39 40 40 40 41 40 37 36 37 38 41 46 47 44 40 38 35 32 31 31 32 32 32 33 33 33 32 32 32 31 28 22 16 13 14 14
4 7 7 7 7 8 8 9 14 14 12 11 9 11 14 16 15 14 14 15 17 18 19 21 20 18 19 20 21 22 22 22 21 20 19 19 23 28 30 32 35 37 38 39 40 40 39 38 38 38 39 40 41 41 41 40 38 37 38 41 43 45 43 39 37 36 36 36 35 34 32 32 33 35 34 32 32 31 29 28 27 21 15 14 16 17
6 6 7 9 8 7 8 11 14 12 9 8 12 15 15 15 15 15 15 17 17 18 20 22 21 20 22 22 22 21 19 19 21 22 20 21 24 28 31 33 36 37 39 40 39 38 38 37 38 40 41 42 42 42 41 40 39 39 41 43 43 42 39 37 39 41 39 37 34 32 32 33 34 34 33 31 29 28 26 27 26 21 16 15 19 22
6 6 7 8 6 6 8 10 12 11 9 11 16 18 17 16 16 14 16 16 16 17 21 22 23 24 24 22 22 21 18 18 22 26 24 23 26 30 32 34 36 38 39 39 39 39 38 38 38 40 42 41 41 41 40 39 40 42 42 40 40 40 40 41 42 41 37 35 34 34 34 34 33 32 30 28 27 26 26 28 27 21 17 16 18 20
6 7 8 8 6 9 11 11 11 11 12 14 17 17 17 18 17 15 17 17 17 22 26 24 22 23 23 21 22 23 21 21 25 28 26 26 29 31 32 33 35 37 37 37 37 38 40 41 42 42 42 42 40 40 40 40 42 42 41 38 38 41 42 42 41 39 37 36 36 35 35 33 32 30 28 26 26 26 25 26 22 15 13 16 17 15
Wind_Direction
304 253 236 257 310 20 191 238 286 324 337 296 290 283 277 279 281 285 86 97 34 295 265 268 275 279 284 281 282 300 308 284 287 294 298 305 298 282 273 263 261 263 266 244 214 209 211 212 213 216 220 225 231 236 238 240 242 240 238 236 235 234 227 221 218 218 222 223 219 219 220 222 224 223 224 227 226 226 226 225 231 245 253 254 256 252
259 255 262 30 40 54 64 43 358 311 295 278 270 275 276 275 282 309 88 109 123 295 281 287 290 283 280 280 286 302 305 300 312 315 322 341 338 321 294 276 271 268 253 210 213 215 214 215 213 216 223 235 248 256 255 253 254 252 248 245 244 241 232 228 224 223 229 231 227 224 223 224 225 223 223 223 222 222 222 221 228 241 245 245 251 253
235 237 55 59 66 79 80 67 48 266 265 261 259 270 275 284 300 25 96 123 165 235 294 308 302 286 280 283 292 312 310 313 325 329 336 344 344 357 21 349 317 303 233 188 201 204 202 201 198 208 245 272 279 282 277 270 267 262 255 251 250 246 239 236 233 230 233 235 233 231 229 227 227 227 224 223 222 219 218 218 224 236 238 233 239 245
264 81 65 65 84 104 101 100 175 257 252 243 249 263 273 305 323 297 124 132 240 238 289 303 288 278 279 280 287 119 239 312 321 312 307 311 339 5 10 1 353 4 13 20 30 44 53 63 68 36 348 319 302 299 297 291 282 273 264 258 254 249 244 241 239 239 239 238 237 236 234 232 231 230 225 222 222 218 216 217 220 229 235 234 233 233
280 62 73 97 86 229 237 180 212 253 267 248 241 254 279 308 322 294 312 316 284 243 266 291 281 269 260 258 116 137 181 162 16 121 111 91 47 14 1 24 26 22 20 18 24 32 36 38 35 24 12 352 333 328 325 315 303 290 281 275 266 259 253 248 244 243 240 235 233 232 231 231 232 231 225 222 223 219 218 221 223 225 229 232 230 226
293 63 91 162 147 219 246 249 228 244 282 276 255 326 321 325 321 302 317 322 304 248 148 326 311 297 194 273 358 100 125 103 93 91 83 75 63 46 35 44 43 39 36 31 32 31 31 31 25 23 21 10 1 354 343 330 317 305 298 292 282 272 264 258 251 243 236 231 229 224 222 224 226 230 229 226 226 222 220 225 226 223 220 220 220 221
88 90 252 215 212 212 242 261 224 191 274 286 10 37 0 329 308 305 314 316 301 289 303 356 297 286 282 280 110 104 96 93 93 82 75 67 61 57 50 50 46 42 39 33 33 30 27 26 21 21 19 15 10 2 355 346 335 325 315 306 296 284 274 268 258 245 236 233 231 228 229 230 231 234 237 235 233 229 226 224 219 214 212 212 214 217
111 125 185 208 226 232 247 265 178 180 270 288 100 13 336 303 289 295 297 276 276 297 293 227 230 268 285 260 129 131 112 90 87 78 74 68 63 60 55 53 46 41 36 27 28 26 25 24 21 18 13 12 7 359 358 355 350 342 331 321 309 296 284 275 263 249 244 242 239 237 238 240 240 242 247 246 241 233 224 216 209 206 207 209 213 217
81 160 187 193 226 248 274 28 58 235 263 321 82 312 305 287 276 271 269 267 273 300 292 201 196 257 274 184 142 162 133 80 85 84 75 66 61 56 50 47 42 40 34 25 24 21 22 22 20 18 11 9 7 2 358 352 350 348 341 332 319 307 296 284 270 256 252 249 247 245 246 247 247 248 250 250 245 233 216 210 209 207 207 211 214 218
58 27 293 244 245 291 32 51 33 280 257 0 12 269 259 246 247 246 248 265 272 268 272 171 177 259 285 270 187 181 140 74 100 94 73 63 55 47 41 36 31 33 30 24 24 20 20 21 18 16 9 8 9 6 2 354 349 346 345 340 329 319 310 296 280 265 258 254 250 249 250 251 251 251 250 247 240 228 217 214 213 212 214 215 215 218
101 65 296 290 299 0 32 50 33 302 300 326 279 267 264 232 213 224 235 255 259 241 239 111 180 269 291 292 337 129 119 83 112 96 68 56 46 38 31 26 21 23 23 19 18 17 16 15 13 9 6 6 5 5 4 359 353 346 343 340 332 325 319 307 292 274 263 258 252 251 252 253 253 253 250 246 237 227 222 219 215 214 215 215 215 216
137 185 178 79 353 345 291 226 178 206 250 277 269 278 288 254 202 208 199 203 243 251 73 93 212 262 260 280 33 101 112 84 91 86 66 48 37 31 23 19 19 17 17 14 11 9 6 1 1 0 0 0 358 359 0 357 353 346 340 337 330 325 323 316 303 282 269 264 257 254 254 255 256 254 251 247 241 233 226 223 217 213 214 215 214 214
164 161 112 92 47 265 265 247 188 186 200 239 263 284 299 301 274 255 245 241 260 162 107 121 327 267 257 276 68 111 118 93 87 83 70 51 31 25 21 18 19 17 15 12 5 0 357 353 353 352 351 351 351 352 353 352 350 345 341 338 332 327 325 320 310 293 277 268 263 260 259 258 258 256 252 248 245 240 232 226 220 214 214 214 212 212
217 109 133 159 150 163 263 275 262 199 213 260 297 318 310 317 308 290 289 286 288 79 123 109 22 276 263 281 96 113 111 97 94 91 82 61 28 14 17 17 18 19 15 8 0 354 350 347 346 344 342 341 342 342 345 347 346 343 339 336 333 329 327 323 315 305 289 276 271 268 264 262 260 257 253 249 246 243 237 231 223 217 217 216 213 212
289 263 162 182 80 102 251 294 344 319 300 310 359 325 291 301 299 293 304 302 299 305 176 125 11 270 275 71 113 116 106 99 95 93 88 58 19 359 7 13 14 14 9 1 353 347 345 342 339 337 335 332 332 332 333 335 336 336 332 329 328 327 327 325 319 312 300 287 280 275 269 265 261 258 255 252 248 244 239 234 228 220 218 216 214 211
262 255 85 71 351 309 272 33 12 302 284 71 32 280 266 315 302 284 293 295 299 300 271 190 224 268 256 116 122 120 113 107 86 69 60 29 7 350 357 13 12 8 1 354 351 347 342 336 329 326 327 326 325 325 324 323 323 322 320 318 318 319 318 318 317 314 307 296 288 280 275 271 265 259 256 255 251 246 240 236 231 225 220 216 213 210
278 260 120 149 207 35 7 13 353 310 319 136 272 289 344 348 313 288 287 286 285 287 263 195 232 266 221 129 137 142 132 110 69 43 24 5 0 352 359 10 5 360 357 353 348 341 334 326 318 317 320 322 321 320 317 316 315 313 311 310 311 311 311 311 312 311 310 305 297 288 282 278 272 264 258 256 255 251 245 239 233 228 223 218 213 210
308 286 152 160 212 102 46 317 267 299 326 287 284 341 348 282 276 274 283 297 288 278 271 246 270 283 293 266 161 160 137 74 35 18 5 359 0 356 359 3 358 355 352 347 340 332 326 319 311 309 315 319 320 319 315 313 312 310 309 310 311 311 313 316 316 314 313 310 304 296 288 284 278 270 263 260 259 256 250 243 234 228 223 218 213 213
307 288 188 99 54 122 156 262 244 178 304 308 313 329 309 282 266 232 267 305 300 288 286 288 291 281 281 264 160 155 113 41 16 8 1 359 359 358 357 355 352 348 343 340 337 330 324 318 311 309 315 319 321 319 316 313 312 311 311 312 311 312 314 317 320 320 319 317 313 305 295 289 283 276 269 263 259 256 251 243 235 229 223 216 214 216
292 278 305 75 103 129 188 225 245 156 135 257 274 247 164 295 285 277 295 306 294 290 292 291 286 273 293 357 110 115 69 29 9 5 0 358 356 352 351 347 343 342 338 336 333 327 322 317 312 311 315 320 321 319 317 314 312 312 313 314 314 314 314 314 316 318 318 319 318 313 305 297 288 280 273 265 259 254 250 245 238 232 224 216 216 218
255 240 283 202 150 252 235 204 330 5 82 234 242 228 210 221 256 286 277 260 275 281 290 293 285 281 20 33 65 75 48 25 13 5 356 353 349 343 341 339 337 337 334 331 328 324 319 313 308 309 316 320 319 318 318 315 314 315 316 317 317 316 315 314 312 312 312 312 313 313 309 303 295 285 276 268 260 254 251 247 240 234 225 219 218 217
295 259 282 287 268 279 339 65 28 18 3 307 282 282 295 278 280 287 272 203 250 275 291 297 287 297 0 68 77 61 35 25 19 4 356 350 343 338 337 337 336 333 329 327 325 321 315 310 307 310 317 321 321 321 321 319 318 319 318 318 317 315 315 313 312 310 307 306 305 306 307 303 296 288 278 269 261 254 251 247 242 234 225 220 220 217
334 280 278 280 275 288 72 81 55 22 355 316 283 291 319 298 273 278 286 334 344 269 300 290 275 292 11 84 77 59 49 45 23 7 359 347 339 336 335 334 333 328 323 321 321 318 315 311 310 315 321 324 324 325 324 322 322 320 319 319 319 317 316 314 311 308 305 302 301 301 304 302 295 286 278 269 261 255 251 247 242 234 226 223 222 219
311 262 267 280 276 162 100 100 86 54 298 249 234 229 274 302 319 302 297 330 313 275 273 273 268 283 85 114 91 34 11 17 13 5 355 341 335 333 330 328 326 323 320 318 318 317 315 313 317 322 325 327 326 326 325 323 322 321 321 322 321 319 318 315 311 308 305 302 300 299 301 301 296 285 276 269 263 259 255 250 243 235 228 225 223 219
294 265 292 302 299 298 115 108 106 129 250 275 252 121 88 50 62 0 286 288 277 262 252 260 270 289 112 153 342 342 341 348 358 357 348 337 330 326 324 323 323 323 321 319 319 318 317 318 322 324 325 325 325 324 323 322 321 320 320 322 322 320 317 314 310 307 305 302 300 297 295 298 296 286 276 269 265 262 258 253 245 236 230 227 225 222
286 291 298 298 307 312 314 328 349 328 313 311 309 116 108 110 135 274 282 269 264 271 265 260 269 292 314 325 330 330 334 346 351 344 336 330 325 322 322 323 325 326 323 321 321 320 320 320 322 322 323 323 323 322 322 320 319 318 317 318 321 321 319 315 309 306 303 301 300 295 290 294 293 285 276 269 263 260 256 251 244 237 232 229 226 223
286 284 269 267 276 286 300 311 322 326 311 302 307 320 140 146 163 277 271 266 296 311 286 271 291 306 315 322 323 326 340 349 341 333 329 326 324 324 323 324 326 325 323 323 323 322 321 321 322 323 323 323 322 320 319 316 315 316 315 315 318 321 322 317 309 303 299 298 299 292 286 293 291 280 276 270 263 259 253 246 241 236 233 230 226 223
276 269 278 277 266 273 289 297 302 306 297 297 313 323 317 144 146 208 247 272 313 317 288 305 326 318 312 317 325 340 352 343 332 328 327 326 326 327 325 325 325 324 325 326 327 327 326 324 325 325 324 323 320 318 316 313 313 312 310 310 314 319 322 319 310 303 298 297 295 286 282 290 287 275 270 269 265 260 253 245 239 236 233 230 227 224
281 269 31 11 272 277 278 279 287 291 291 300 314 320 325 337 164 210 254 280 302 297 287 310 319 309 306 321 340 356 349 334 328 326 325 327 328 327 326 325 324 324 327 332 334 334 330 327 327 325 323 320 318 315 312 311 312 312 310 312 315 317 319 318 311 302 299 296 291 285 283 288 286 270 263 267 266 260 253 247 240 236 233 230 228 225
283 269 97 173 278 279 270 272 283 273 288 314 330 345 347 343 311 257 272 292 298 287 290 304 307 301 309 340 353 348 338 330 327 326 328 329 328 328 326 323 323 328 334 337 335 331 327 325 323 322 320 318 317 315 314 317 323 322 317 314 313 313 316 316 310 304 304 302 295 287 283 288 289 274 257 262 266 259 252 246 240 235 233 231 230 227
272 327 92 199 287 293 252 166 196 208 274 338 31 28 7 359 359 337 302 312 311 300 301 306 303 299 326 357 345 334 333 334 332 331 329 328 328 326 322 321 327 334 335 333 329 325 324 323 320 321 324 324 325 325 326 330 328 321 314 311 312 315 317 317 314 311 309 304 298 292 284 287 293 283 261 255 258 255 249 243 238 235 233 231 230 228
238 282 332 272 300 310 116 147 262 237 110 89 51 26 8 360 357 343 327 327 321 313 312 309 305 312 342 346 334 329 335 337 334 332 328 326 326 322 320 327 334 334 330 327 324 323 321 320 321 326 330 330 330 330 329 325 319 313 311 312 316 322 323 320 318 315 311 306 305 304 300 297 298 293 282 267 257 254 250 241 234 232 230 230 230 226
333 297 307 326 305 304 28 329 311 304 135 120 58 30 9 0 354 341 333 326 317 314 313 310 320 337 340 338 333 332 335 335 334 333 327 323 321 320 325 334 333 328 326 323 322 321 321 323 326 327 326 326 326 325 322 319 314 312 315 319 326 330 327 320 316 313 312 309 308 307 305 299 297 296 293 284 270 259 252 240 233 232 232 231 230 224
25 289 303 333 296 298 325 322 304 280 228 119 85 42 11 6 357 339 327 322 317 317 324 328 335 339 338 338 335 332 330 329 328 328 323 318 319 324 331 332 328 325 323 322 324 326 325 326 325 322 322 324 322 319 317 315 315 319 324 328 329 327 321 315 310 307 306 303 300 299 299 297 296 296 296 291 276 259 251 243 235 235 238 236 230 221
261 277 296 317 273 290 314 320 310 320 54 143 110 33 12 3 351 339 327 323 324 330 349 350 339 339 338 335 332 329 324 322 322 320 317 319 328 334 331 327 324 323 324 326 330 329 326 325 324 323 324 323 320 318 318 320 324 326 326 324 319 313 310 308 305 303 302 301 300 302 303 302 300 300 301 297 281 266 265 261 245 239 243 242 233 226
300 297 300 290 286 295 314 327 328 11 89 112 36 15 8 355 352 346 332 328 341 357 6 353 338 338 337 330 328 326 321 320 319 314 317 332 340 335 327 324 325 327 329 329 327 324 323 323 322 322 322 323 325 328 328 328 327 324 319 315 312 309 309 309 307 305 306 306 308 310 310 309 307 303 303 300 289 279 278 271 257 251 253 249 238 229
304 303 314 316 339 340 319 314 299 253 142 74 29 9 4 353 348 337 313 314 9 22 6 350 339 337 334 328 326 326 324 321 315 313 329 340 338 331 327 328 330 330 328 325 323 322 323 324 324 325 328 331 331 330 327 323 321 319 315 313 313 313 315 315 312 310 311 311 312 312 310 307 305 302 302 302 297 291 283 273 265 262 261 253 240 230
325 318 328 317 330 351 311 312 313 282 267 51 20 2 3 348 331 322 295 282 25 16 358 347 339 333 330 328 329 332 331 322 313 318 333 336 334 334 333 330 328 326 327 328 328 327 328 329 331 332 332 329 324 321 320 318 317 317 315 314 314 314 316 316 314 311 312 312 311 309 307 306 304 302 300 297 296 294 289 282 276 269 262 255 245 236
19 290 286 288 296 352 330 315 318 305 356 39 7 354 359 342 326 317 278 255 14 5 351 340 332 327 328 330 333 336 332 320 315 321 331 334 335 335 333 328 327 331 333 333 332 331 330 330 330 328 326 324 321 321 321 320 319 318 315 313 312 312 313 316 314 312 310 309 309 308 307 305 302 298 297 299 303 306 306 304 298 285 270 256 247 240
35 347 338 331 326 338 325 304 307 320 48 19 357 352 352 337 320 302 274 316 357 349 339 332 327 326 330 332 332 332 324 318 318 320 328 333 333 332 333 332 333 334 334 332 331 330 328 326 325 325 325 325 324 324 324 323 321 319 316 313 311 309 311 313 313 311 310 309 308 306 304 302 300 300 306 313 315 316 316 317 314 303 286 264 248 241
26 357 5 15 338 328 311 306 314 340 56 11 357 356 351 336 311 289 300 328 340 334 328 329 327 328 332 330 327 324 318 318 319 319 325 329 328 330 334 333 331 330 329 328 327 326 324 323 323 324 324 324 324 323 323 324 325 323 319 313 308 308 311 313 312 310 309 308 306 306 307 309 310 312 314 313 311 309 310 314 315 308 294 274 254 243
5 340 352 14 341 330 312 309 309 265 57 16 359 354 359 354 324 310 321 325 329 326 322 324 327 331 332 328 322 320 318 319 320 321 324 327 327 329 331 330 329 328 326 326 326 326 326 325 324 323 322 323 323 321 322 327 327 323 317 309 306 309 311 311 309 310 312 314 314 316 319 320 317 314 311 309 307 304 302 306 312 307 294 277 259 245
346 323 1 12 350 323 307 326 331 314 10 11 2 355 13 20 332 322 327 324 324 323 320 322 329 334 332 327 322 321 322 322 323 324 326 327 327 326 326 328 328 326 325 326 327 329 329 324 322 321 321 322 321 320 325 330 325 319 313 308 309 310 309 311 316 318 319 321 320 317 315 314 312 309 306 305 305 302 297 297 304 302 287 273 260 246
7 350 349 359 10 356 319 330 346 332 347 6 3 344 344 351 337 337 334 325 321 324 323 323 327 332 333 327 322 325 326 324 324 325 325 324 323 325 326 327 326 325 326 327 326 327 327 323 321 320 320 321 320 322 328 328 320 314 314 313 312 311 314 323 326 321 317 315 312 308 307 310 309 306 304 303 304 303 298 294 295 291 275 263 254 239
50 19 324 294 344 339 294 285 318 338 353 357 345 329 336 346 344 341 333 322 321 325 326 324 325 330 330 325 323 326 326 322 321 321 321 321 323 326 326 324 324 326 327 325 324 325 325 323 321 320 320 321 321 323 327 325 319 315 314 313 315 319 324 327 325 318 312 310 307 304 307 310 308 305 304 303 302 301 298 292 286 276 262 249 234 222
58 19 332 286 331 327 291 283 333 352 352 340 330 339 354 347 340 336 330 326 327 327 329 331 330 328 327 325 325 323 320 320 319 318 320 323 325 325 323 322 324 326 326 325 324 324 325 324 322 320 320 320 322 323 324 323 319 315 312 314 321 326 325 322 318 314 312 312 312 312 313 311 308 305 303 302 299 296 295 289 276 262 252 240 225 218
47 17 347 324 338 324 296 329 356 353 340 330 333 351 346 333 332 337 336 332 330 329 333 334 331 329 327 326 323 318 317 319 319 319 323 328 325 323 323 323 324 325 325 324 324 324 325 324 322 321 320 321 323 323 323 322 319 315 317 322 325 324 320 315 313 314 318 321 320 317 314 309 306 305 303 300 297 293 292 290 279 262 244 231 227 223
350 354 343 331 326 304 291 324 347 341 322 319 337 343 331 327 334 341 339 333 330 330 332 332 332 332 328 323 320 318 319 322 323 323 327 327 324 322 322 322 323 323 323 324 324 325 325 322 321 322 322 322 323 322 321 321 320 321 324 325 323 318 314 314 317 322 324 322 316 311 309 306 304 303 299 296 294 292 291 292 286 265 236 226 230 226
320 329 334 326 315 298 302 331 345 335 311 316 333 331 327 333 339 338 335 333 333 335 333 329 330 331 326 323 323 324 324 325 327 328 328 324 322 320 320 321 322 321 321 323 324 324 323 322 322 323 322 322 322 321 321 321 323 325 325 323 320 318 319 322 326 325 321 317 313 310 309 306 302 300 297 295 294 293 291 293 289 271 251 253 252 242
341 346 341 329 318 316 327 343 347 333 312 318 328 329 333 339 339 336 336 335 336 340 337 330 328 328 327 328 331 330 326 324 326 327 326 322 320 319 320 321 321 321 322 323 323 323 323 322 323 322 321 321 322 321 321 323 325 325 323 321 322 325 327 328 326 322 318 317 314 310 308 305 302 301 299 298 298 297 296 296 289 271 263 273 267 249
0 351 338 329 314 313 325 339 341 324 310 314 322 328 334 337 335 335 336 333 332 338 339 334 330 329 329 333 335 332 327 324 326 326 324 321 320 320 320 321 321 321 322 324 324 324 325 325 324 323 322 322 322 322 323 323 323 322 323 325 328 329 328 326 323 319 318 315 312 309 308 306 304 303 301 301 302 301 300 300 293 274 271 282 271 249